[[{"header":{"parameterUnit":"m.s-1","parameterCategory":1,"la1":30.2991,"la2":30.254,"lo1":-89.0895,"lo2":-89.0444,"dy":0.0017,"dx":0.0017,"nx":28,"ny":28,"refTime":"2023-11-17T09:00:00:Z","depth":0,"parameterNumber":2,"parameterNumberName":"U-component_of_WINDS"},"data":[0,0,0,0,0,0,0,0,0,0,0,0,0,0,0,0,0,0,0,0,0,0,0,0,0,0,0,0,0,0,0,0,0,0,0,0,0,0,0,0,0,0,0,0,0,0,0,0,0,0,0,0,0,0,0,0,0,0,0.3982,0.3983,0,0.4049,0.4049,0.405,0.4111,0.4112,0.4113,0.4114,0.418,0.4181,0.4182,0,0,0,0,0,0,0,0,0,0,0,0,0,0.3906,0.3907,0.3982,0.3983,0.3983,0.4049,0.405,0.405,0.4111,0.4112,0.4113,0.4114,0.418,0.4181,0.4182,0,0,0,0,0,0,0,0,0,0,0,0,0,0.3952,0.3907,0.3982,0.4022,0.4026,0.4048,0.405,0.4051,0.4111,0.4112,0.4113,0.4114,0.4179,0.4181,0.4182,0.417,0,0,0.4187,0.4188,0,0,0,0,0,0,0,0,0.3949,0.3955,0.4015,0.4019,0.4024,0.4073,0.4047,0.409,0.4111,0.4079,0.4114,0.4115,0.4143,0.4148,0.4158,0.4173,0.4176,0.4187,0.4188,0.4189,0.4189,0,0,0,0,0,0,0,0.3946,0.3952,0.4008,0.4016,0.4021,0.4036,0.4044,0.4056,0.4104,0.4082,0.4086,0.4093,0.4146,0.4156,0.416,0.4177,0.4187,0.4189,0.419,0.419,0.4185,0.4184,0,0,0,0,0,0,0.3937,0.3949,0.4006,0.401,0.3989,0.4037,0.4045,0.4056,0.4104,0.4112,0.4092,0.4096,0.4153,0.4158,0.4162,0.4151,0.4189,0.419,0.4191,0.4186,0.4185,0.4184,0,0,0,0,0,0,0.3935,0.3942,0.4003,0.3981,0.399,0.4037,0.4048,0.4057,0.4067,0.4112,0.4121,0.4094,0.4154,0.416,0.4168,0.4154,0.4191,0.4193,0.4187,0.4186,0.4184,0.4126,0,0,0,0,0,0,0.3933,0.394,0.3936,0.3981,0.3991,0.4007,0.4047,0.4057,0.407,0.4075,0.4116,0.4124,0.4155,0.4165,0.4169,0.4157,0.4194,0.4189,0.4187,0.4185,0.413,0.4123,0.4117,0,0,0,0,0,0.393,0.3917,0.3936,0.3942,0.3987,0.4007,0.4013,0.405,0.4069,0.4065,0.4094,0.4122,0.4155,0.4165,0.4171,0.4158,0.419,0.4187,0.4185,0.4133,0.4124,0.4117,0,0,0,0,0,0,0.3869,0.3923,0.3945,0.3946,0.3971,0.4017,0.4013,0.404,0.406,0.4064,0.4109,0.4117,0.412,0.414,0.415,0.4149,0.4176,0.4175,0.4135,0.4127,0.4121,0.4115,0.4195,0,0,0,0,0,0.3855,0.3867,0.3915,0.3911,0.3923,0.3965,0.3975,0.4002,0.403,0.4041,0.407,0.4096,0.4112,0.4121,0.4138,0.4134,0.4143,0.4128,0.4122,0.4117,0.4114,0.4113,0.4106,0.4175,0.4175,0.4175,0,0,0.3828,0.3859,0.3864,0.3899,0.3922,0.3933,0.3974,0.3984,0.3992,0.4042,0.4051,0.4073,0.4105,0.4106,0.4108,0.4123,0.4098,0.4113,0.4109,0.4109,0.411,0.4103,0.4097,0.4174,0.4174,0.4174,0,0,0.3783,0.3808,0.3808,0.383,0.3865,0.3894,0.3893,0.3936,0.3953,0.3963,0.4,0.4011,0.4038,0.4059,0.4073,0.4037,0.4064,0.4042,0.4008,0.4007,0.4001,0.3996,0.3983,0.3977,0.404,0.4039,0.4039,0,0.3743,0.3762,0.3804,0.3812,0.3826,0.3873,0.3873,0.3893,0.393,0.3939,0.3956,0.3991,0.4015,0.4022,0.4014,0.4024,0.4025,0.4036,0.3999,0.3994,0.3991,0.3978,0.3973,0.4036,0.4037,0.4037,0.4037,0,0.3712,0.3724,0.372,0.3756,0.377,0.3773,0.3816,0.3825,0.3851,0.3878,0.3888,0.3919,0.3944,0.3948,0.3973,0.3958,0.3966,0.399,0.4019,0.398,0.3969,0.3965,0.4032,0.4033,0.4034,0.4035,0,0,0.3627,0.3688,0.3686,0.3703,0.3745,0.3755,0.3761,0.3786,0.3793,0.3818,0.3823,0.3846,0.3869,0.3885,0.3913,0.3912,0.3881,0.3936,0.3938,0.3923,0.3865,0.3845,0.3839,0.39,0.3899,0.3899,0.3862,0,0.3588,0.3602,0.364,0.3642,0.3653,0.37,0.3705,0.3731,0.3757,0.3771,0.38,0.3814,0.3844,0.3853,0.3855,0.3884,0.3869,0.3888,0.3904,0.3904,0.3893,0.3833,0.3812,0.3776,0.3858,0.3857,0.3857,0,0.3543,0.3566,0.3569,0.3611,0.3617,0.3621,0.3647,0.366,0.3691,0.371,0.3729,0.3761,0.3769,0.3797,0.3809,0.3821,0.3831,0.3846,0.3846,0.3847,0.3876,0.3831,0.3766,0.3759,0.3851,0.3851,0.3852,0,0.3479,0.3511,0.3517,0.3531,0.358,0.3582,0.3603,0.3635,0.3648,0.3671,0.3679,0.3703,0.3715,0.3733,0.377,0.3787,0.3778,0.3809,0.3792,0.3791,0.3786,0.3785,0.3719,0.3796,0.3796,0.3796,0.3796,0,0.343,0.3429,0.3489,0.3492,0.3493,0.3538,0.3538,0.3563,0.3592,0.36,0.3643,0.365,0.37,0.3713,0.3742,0.3747,0.3753,0.3768,0.3775,0.3763,0.376,0.3768,0.377,0.3794,0.3795,0.3795,0.3795,0,0.3358,0.3398,0.3407,0.3454,0.3466,0.3465,0.3505,0.351,0.3539,0.355,0.3555,0.36,0.3618,0.3658,0.3686,0.3706,0.3702,0.3717,0.3692,0.3696,0.3677,0.3677,0.3611,0.3604,0.3686,0.3686,0.3685,0,0.3323,0.3323,0.3371,0.338,0.34,0.3414,0.3427,0.3473,0.3485,0.3521,0.3521,0.3542,0.3561,0.3587,0.3622,0.3644,0.3658,0.3634,0.3662,0.3649,0.3656,0.3654,0.3654,0.3627,0.3625,0.3625,0.3624,0,0.3255,0.3275,0.3293,0.3318,0.3333,0.3355,0.3379,0.3384,0.3435,0.3447,0.3466,0.348,0.351,0.353,0.3557,0.3578,0.3609,0.3615,0.3612,0.3598,0.3583,0.3589,0.3673,0.3616,0.3617,0.3617,0.3618,0.3618,0.3199,0.3202,0.3236,0.3255,0.3278,0.33,0.3306,0.3337,0.3354,0.3381,0.3408,0.3424,0.3456,0.3496,0.3515,0.3528,0.3544,0.354,0.3538,0.3536,0.353,0.3583,0.3534,0.3534,0.3534,0.3534,0.3535,0,0.3133,0.3157,0.3174,0.3207,0.3221,0.3251,0.328,0.329,0.3303,0.3331,0.3349,0.3371,0.3391,0.3429,0.3452,0.3455,0.3469,0.3459,0.3458,0.3462,0.3515,0.3515,0.3447,0.3447,0.3447,0.3447,0.3447,0.3447,0.3099,0.3105,0.313,0.3147,0.3173,0.3189,0.3202,0.3223,0.3245,0.3267,0.3284,0.3309,0.3341,0.3367,0.3387,0.3397,0.3403,0.3388,0.3402,0.3451,0.3459,0.3466,0.3466,0.3389,0.3389,0.3348,0.3348,0.3347]},{"header":{"parameterUnit":"m.s-1","parameterCategory":1,"la1":30.2991,"la2":30.254,"lo1":-89.0895,"lo2":-89.0444,"dy":0.0017,"dx":0.0017,"nx":28,"ny":28,"refTime":"2023-11-17T09:00:00:Z","depth":0,"parameterNumber":3,"parameterNumberName":"V-component_of_WINDS"},"data":[0,0,0,0,0,0,0,0,0,0,0,0,0,0,0,0,0,0,0,0,0,0,0,0,0,0,0,0,0,0,0,0,0,0,0,0,0,0,0,0,0,0,0,0,0,0,0,0,0,0,0,0,0,0,0,0,0,0,-1.533,-1.533,0,-1.5317,-1.5317,-1.5317,-1.5287,-1.5287,-1.5286,-1.5286,-1.527,-1.527,-1.527,0,0,0,0,0,0,0,0,0,0,0,0,0,-1.5329,-1.5329,-1.533,-1.533,-1.533,-1.5317,-1.5317,-1.5317,-1.5287,-1.5287,-1.5286,-1.5285,-1.527,-1.527,-1.527,0,0,0,0,0,0,0,0,0,0,0,0,0,-1.5324,-1.5329,-1.533,-1.5314,-1.5312,-1.5317,-1.5317,-1.5317,-1.5288,-1.5287,-1.5286,-1.5285,-1.527,-1.527,-1.527,-1.529,0,0,-1.5271,-1.5271,0,0,0,0,0,0,0,0,-1.5324,-1.5324,-1.5316,-1.5315,-1.5313,-1.5303,-1.5311,-1.5308,-1.5288,-1.5297,-1.5285,-1.5284,-1.5281,-1.5281,-1.528,-1.5289,-1.5288,-1.5271,-1.5271,-1.5271,-1.5271,0,0,0,0,0,0,0,-1.5325,-1.5325,-1.5325,-1.5316,-1.5314,-1.5307,-1.5305,-1.531,-1.5294,-1.5296,-1.5294,-1.5293,-1.528,-1.528,-1.528,-1.5288,-1.5271,-1.5271,-1.5271,-1.5271,-1.5315,-1.5316,0,0,0,0,0,0,-1.5328,-1.5325,-1.5326,-1.5325,-1.5317,-1.5308,-1.5306,-1.5307,-1.5294,-1.5291,-1.5294,-1.5291,-1.528,-1.5279,-1.5279,-1.5303,-1.5271,-1.5271,-1.5271,-1.5314,-1.5316,-1.5317,0,0,0,0,0,0,-1.5328,-1.5328,-1.5326,-1.5324,-1.5324,-1.5309,-1.5311,-1.5307,-1.5307,-1.5292,-1.5289,-1.5296,-1.5279,-1.5279,-1.5288,-1.5302,-1.5271,-1.5272,-1.5313,-1.5315,-1.5316,-1.5351,0,0,0,0,0,0,-1.5328,-1.5328,-1.5336,-1.5325,-1.5324,-1.5336,-1.5311,-1.5308,-1.5308,-1.5305,-1.5294,-1.5291,-1.5279,-1.5288,-1.5288,-1.5302,-1.5272,-1.5312,-1.5314,-1.5316,-1.5349,-1.5354,-1.5358,0,0,0,0,0,-1.5328,-1.5345,-1.5336,-1.5336,-1.5333,-1.5337,-1.5336,-1.5322,-1.5309,-1.5317,-1.5308,-1.5292,-1.53,-1.5289,-1.5289,-1.5303,-1.5311,-1.5313,-1.5315,-1.5346,-1.5353,-1.5358,0,0,0,0,0,0,-1.5356,-1.5343,-1.5333,-1.5347,-1.5344,-1.5332,-1.5341,-1.5328,-1.5327,-1.5325,-1.5306,-1.5304,-1.5316,-1.531,-1.5298,-1.5323,-1.5303,-1.5306,-1.5327,-1.5332,-1.5337,-1.5339,-1.5272,0,0,0,0,0,-1.5364,-1.5369,-1.5357,-1.537,-1.5369,-1.5355,-1.5356,-1.5346,-1.5341,-1.5339,-1.533,-1.5326,-1.5328,-1.5329,-1.533,-1.5347,-1.5345,-1.5357,-1.5362,-1.5365,-1.5368,-1.5379,-1.5385,-1.5324,-1.5324,-1.5324,0,0,-1.538,-1.5374,-1.5378,-1.5376,-1.5372,-1.5378,-1.5354,-1.536,-1.5365,-1.534,-1.5349,-1.5343,-1.5337,-1.5351,-1.5357,-1.5346,-1.5385,-1.5368,-1.5372,-1.5372,-1.5383,-1.5388,-1.5393,-1.5326,-1.5326,-1.5325,0,0,-1.5413,-1.5408,-1.542,-1.5417,-1.5412,-1.5403,-1.5406,-1.5397,-1.5392,-1.5402,-1.5384,-1.5388,-1.5391,-1.5389,-1.5387,-1.5422,-1.5409,-1.5423,-1.5448,-1.5459,-1.5464,-1.5468,-1.5482,-1.5488,-1.5425,-1.5425,-1.5425,0,-1.5434,-1.5443,-1.5428,-1.5436,-1.5437,-1.5416,-1.5429,-1.5426,-1.5421,-1.5422,-1.541,-1.5416,-1.541,-1.5424,-1.5433,-1.5432,-1.5436,-1.5424,-1.5464,-1.5468,-1.5472,-1.5486,-1.5491,-1.5427,-1.5427,-1.5427,-1.5427,0,-1.547,-1.5476,-1.5486,-1.5484,-1.5485,-1.5496,-1.5483,-1.5486,-1.5476,-1.5468,-1.5479,-1.5471,-1.5472,-1.5474,-1.5463,-1.5488,-1.5482,-1.5467,-1.5448,-1.548,-1.5493,-1.5498,-1.543,-1.5429,-1.5429,-1.5428,0,0,-1.5519,-1.5511,-1.5515,-1.5515,-1.5509,-1.5513,-1.5523,-1.5525,-1.5529,-1.5526,-1.5535,-1.5539,-1.5527,-1.5526,-1.5515,-1.5524,-1.5555,-1.5509,-1.5508,-1.552,-1.5585,-1.5598,-1.5604,-1.5546,-1.5547,-1.5547,-1.5586,0,-1.5553,-1.557,-1.5558,-1.5578,-1.5585,-1.5566,-1.5575,-1.5572,-1.5566,-1.5571,-1.5563,-1.5567,-1.5549,-1.5549,-1.5557,-1.555,-1.5569,-1.5546,-1.5555,-1.5556,-1.5559,-1.561,-1.5623,-1.566,-1.5591,-1.5592,-1.5592,0,-1.5593,-1.5595,-1.5616,-1.5612,-1.5614,-1.5622,-1.5624,-1.5628,-1.5626,-1.562,-1.5621,-1.5607,-1.5617,-1.5597,-1.5612,-1.5597,-1.56,-1.5597,-1.5598,-1.5599,-1.5577,-1.5615,-1.5671,-1.5678,-1.56,-1.5599,-1.5599,0,-1.5631,-1.5638,-1.5653,-1.5653,-1.5647,-1.5654,-1.5651,-1.5647,-1.565,-1.5651,-1.5653,-1.5655,-1.5656,-1.5658,-1.5646,-1.5632,-1.5663,-1.5641,-1.566,-1.5661,-1.5668,-1.5669,-1.5728,-1.5667,-1.5667,-1.5667,-1.5667,0,-1.567,-1.5684,-1.567,-1.5679,-1.5695,-1.5681,-1.5697,-1.5692,-1.569,-1.5698,-1.568,-1.5688,-1.5671,-1.5678,-1.5668,-1.5683,-1.5683,-1.568,-1.5677,-1.5683,-1.5683,-1.5685,-1.5683,-1.5668,-1.5668,-1.5667,-1.5667,0,-1.5715,-1.5706,-1.5721,-1.5715,-1.5714,-1.5726,-1.572,-1.5729,-1.5722,-1.5733,-1.5734,-1.5723,-1.573,-1.5718,-1.5722,-1.5716,-1.5738,-1.573,-1.574,-1.5738,-1.5759,-1.5758,-1.5823,-1.5832,-1.5764,-1.5764,-1.5765,0,-1.5742,-1.5753,-1.5749,-1.5754,-1.5753,-1.5761,-1.5764,-1.5751,-1.5755,-1.5754,-1.5763,-1.5769,-1.5773,-1.5785,-1.5777,-1.5781,-1.5775,-1.5797,-1.5775,-1.5781,-1.5778,-1.5779,-1.5781,-1.5802,-1.5803,-1.5804,-1.5804,0,-1.5791,-1.5787,-1.5793,-1.5798,-1.5803,-1.5806,-1.5807,-1.5812,-1.5798,-1.5804,-1.5812,-1.5815,-1.5821,-1.5828,-1.5831,-1.5828,-1.5815,-1.5811,-1.5817,-1.5823,-1.5829,-1.5829,-1.5755,-1.581,-1.581,-1.5809,-1.5809,-1.5809,-1.5829,-1.584,-1.5839,-1.5847,-1.5847,-1.585,-1.5859,-1.5854,-1.586,-1.5866,-1.5857,-1.5867,-1.5866,-1.5868,-1.5868,-1.5876,-1.5866,-1.5872,-1.5874,-1.5877,-1.5882,-1.5826,-1.5876,-1.5875,-1.5875,-1.5875,-1.5875,0,-1.588,-1.588,-1.5887,-1.5891,-1.5898,-1.5885,-1.5887,-1.5894,-1.5904,-1.5904,-1.5909,-1.5919,-1.5926,-1.5919,-1.5925,-1.5933,-1.5927,-1.5935,-1.5936,-1.5936,-1.5889,-1.5885,-1.594,-1.594,-1.594,-1.594,-1.594,-1.594,-1.5907,-1.5925,-1.5921,-1.5939,-1.5937,-1.5949,-1.5952,-1.5954,-1.5955,-1.5968,-1.5974,-1.597,-1.5968,-1.5974,-1.598,-1.5978,-1.5982,-1.5992,-1.5988,-1.5945,-1.5939,-1.5933,-1.5929,-1.5993,-1.5993,-1.6035,-1.6035,-1.6036]}]]